TimeMST,TemperatureF,Dew PointF,Humidity,Sea Level PressureIn,VisibilityMPH,Wind Direction,Wind SpeedMPH,Gust SpeedMPH,PrecipitationIn,Events,Conditions,WindDirDegrees,DateUTC
12:53 AM,14.0,10.9,88,30.18,10.0,WNW,6.9,-,N/A,,Clear,300,2013-11-06 07:53:00
1:53 AM,16.0,12.0,84,30.17,10.0,NW,4.6,-,N/A,,Clear,310,2013-11-06 08:53:00
2:53 AM,17.1,10.9,77,30.16,10.0,Calm,Calm,-,N/A,,Clear,0,2013-11-06 09:53:00
3:53 AM,19.0,10.9,71,30.16,10.0,WNW,4.6,-,N/A,,Clear,300,2013-11-06 10:53:00
4:53 AM,21.9,10.0,60,30.16,10.0,Calm,Calm,-,N/A,,Mostly Cloudy,0,2013-11-06 11:53:00
5:53 AM,21.9,10.9,63,30.17,10.0,West,5.8,-,N/A,,Partly Cloudy,270,2013-11-06 12:53:00
6:53 AM,24.1,12.0,60,30.16,10.0,West,8.1,-,N/A,,Clear,280,2013-11-06 13:53:00
7:53 AM,24.1,12.0,60,30.20,10.0,Calm,Calm,-,N/A,,Clear,0,2013-11-06 14:53:00
8:53 AM,30.9,15.1,52,30.20,10.0,WNW,8.1,-,N/A,,Partly Cloudy,290,2013-11-06 15:53:00
9:53 AM,33.1,19.0,56,30.21,10.0,WNW,15.0,20.7,0.01,,Partly Cloudy,290,2013-11-06 16:53:00
10:53 AM,34.0,21.0,59,30.20,10.0,West,13.8,20.7,N/A,,Clear,280,2013-11-06 17:53:00
11:53 AM,36.0,24.1,62,30.18,10.0,WNW,15.0,24.2,N/A,,Mostly Cloudy,290,2013-11-06 18:53:00
12:07 PM,35.6,24.8,65,30.07,10.0,WNW,15.0,19.6,N/A,,Overcast,290,2013-11-06 19:07:00
12:53 PM,35.1,23.0,61,30.20,10.0,West,10.4,18.4,N/A,,Mostly Cloudy,280,2013-11-06 19:53:00
1:53 PM,36.0,23.0,59,30.21,10.0,WNW,11.5,25.3,N/A,,Partly Cloudy,300,2013-11-06 20:53:00
2:53 PM,36.0,21.9,57,30.20,10.0,WNW,8.1,20.7,N/A,,Clear,300,2013-11-06 21:53:00
3:20 PM,33.8,24.8,70,30.12,1.2,WNW,16.1,29.9,0.00,Snow,Light Snow,300,2013-11-06 22:20:00
3:26 PM,30.2,26.6,86,30.12,0.5,NW,8.1,29.9,0.00,Fog-Snow,Snow,310,2013-11-06 22:26:00
3:40 PM,30.2,28.4,93,30.12,2.5,Calm,Calm,-,0.00,Snow,Light Snow,0,2013-11-06 22:40:00
3:43 PM,30.2,26.6,86,30.12,5.0,NW,3.5,-,0.00,Snow,Light Snow,320,2013-11-06 22:43:00
3:53 PM,30.9,27.0,85,30.25,10.0,WSW,4.6,-,0.00,,Mostly Cloudy,250,2013-11-06 22:53:00
4:01 PM,30.2,26.6,86,30.12,10.0,WSW,5.8,-,N/A,,Scattered Clouds,250,2013-11-06 23:01:00
4:53 PM,32.0,21.9,66,30.25,10.0,WNW,12.7,-,0.00,,Mostly Cloudy,290,2013-11-06 23:53:00
5:53 PM,30.0,23.0,75,30.28,10.0,NNW,4.6,-,N/A,,Clear,340,2013-11-07 00:53:00
6:53 PM,28.9,21.0,72,30.29,10.0,NNW,3.5,-,N/A,,Clear,340,2013-11-07 01:53:00
7:53 PM,28.9,21.0,72,30.31,10.0,Variable,6.9,-,N/A,,Clear,0,2013-11-07 02:53:00
8:53 PM,28.9,19.0,67,30.30,10.0,NW,6.9,-,N/A,,Clear,320,2013-11-07 03:53:00
9:53 PM,27.0,16.0,63,30.34,10.0,Variable,5.8,-,N/A,,Clear,0,2013-11-07 04:53:00
10:53 PM,28.0,15.1,58,30.33,10.0,NW,5.8,-,N/A,,Partly Cloudy,310,2013-11-07 05:53:00
11:53 PM,24.1,15.1,69,30.35,10.0,Calm,Calm,-,N/A,,Scattered Clouds,0,2013-11-07 06:53:00